Dallas Addison, TX

6:49 PM CDT on May 26, 2017 (GMT -0500)
Addison

Weather History for KADS - November, 2013

Change the Weather History Date:

Sunday, November 17, 2013

  Actual Average Record
Temperature  
Mean Temperature 75 °F -  
Max Temperature 84 °F 63 °F 84 °F (2013)
Min Temperature 65 °F 48 °F 24 °F (2014)
Cooling Degree Days 10    
Growing Degree Days 25 (Base 50)    
Moisture  
Dew Point 55 °F    
Average Humidity 58    
Maximum Humidity 100    
Minimum Humidity 23    
Precipitation  
Precipitation 0.00 in - - ()
Sea Level Pressure  
Sea Level Pressure 29.83 in    
Wind  
Wind Speed 13 mph (SSW)    
Max Wind Speed 17 mph    
Max Gust Speed 28 mph    
Visibility 11 miles    
Events      
Averages and records for this station are not official NWS values.
T = Trace of Precipitation, MM = Missing Value Source: NWS Daily Summary

Daily Weather History Graph

Daily Weather History Graph

Search for Another Location

Airport or City:

Trip Planner

Search our weather history database for the weather conditions in past years. The results will help you decide how hot, cold, wet, or windy it might be!

Date:

Astronomy

Nov. 17, 2013 Rise Set
Actual Time 6:59 AM CST 5:24 PM CST
Civil Twilight 6:33 AM CST 5:50 PM CST
Nautical Twilight 6:03 AM CST 6:20 PM CST
Astronomical Twilight 5:34 AM CST 6:50 PM CST
Moon 5:42 PM CST (11/17) 6:55 AM CST (11/17)
Length of Visible Light 11h 17m
Length of Day
10h 24m
Full, 100% of the Moon is Illuminated
Nov 17
Full
Nov 25
Last Quarter
Dec 2
New
Dec 9
First Quarter
Dec 17
Full

Hourly Weather History & Observations

Time (CST) Temp. Heat Index Dew Point Humidity Pressure Visibility Wind Dir Wind Speed Gust Speed Precip Events Conditions
12:15 AM 74.5 °F - 68.9 °F 83% 29.74 in 10.0 mi South 17.3 mph 23.0 mph N/A   Overcast
12:35 AM 74.5 °F - 68.5 °F 82% 29.73 in 10.0 mi South 15.0 mph 24.2 mph N/A   Overcast
12:55 AM 74.5 °F - 68.2 °F 81% 29.73 in 10.0 mi SSW 13.8 mph 25.3 mph N/A   Overcast
1:15 AM 74.7 °F - 68.2 °F 80% 29.73 in 10.0 mi South 13.8 mph 19.6 mph N/A   Overcast
1:35 AM 74.7 °F - 68.0 °F 80% 29.73 in 10.0 mi South 13.8 mph 27.6 mph N/A   Overcast
1:55 AM 74.7 °F - 68.0 °F 80% 29.72 in 10.0 mi South 12.7 mph 20.7 mph N/A   Overcast
2:15 AM 74.8 °F - 68.0 °F 79% 29.73 in 10.0 mi SSW 12.7 mph 21.9 mph N/A   Overcast
2:35 AM 74.8 °F - 68.0 °F 79% 29.72 in 10.0 mi SSW 13.8 mph 23.0 mph N/A   Overcast
2:55 AM 74.8 °F - 68.0 °F 79% 29.72 in 10.0 mi SSW 16.1 mph 27.6 mph N/A   Overcast
3:15 AM 74.7 °F - 68.2 °F 80% 29.73 in 10.0 mi SSW 10.4 mph 23.0 mph N/A   Overcast
3:35 AM 74.5 °F - 68.4 °F 81% 29.73 in 10.0 mi SSW 12.7 mph 23.0 mph N/A   Overcast
3:55 AM 74.3 °F - 68.5 °F 82% 29.73 in 10.0 mi SSW 11.5 mph 19.6 mph N/A   Overcast
4:15 AM 73.9 °F - 68.9 °F 84% 29.72 in 10.0 mi SSW 10.4 mph 20.7 mph N/A   Overcast
4:35 AM 73.6 °F - 68.9 °F 85% 29.72 in 10.0 mi SSW 10.4 mph 20.7 mph N/A   Overcast
4:55 AM 73.4 °F - 69.3 °F 87% 29.72 in 10.0 mi SSW 15.0 mph 21.9 mph N/A   Overcast
5:51 AM 73.4 °F - 71.6 °F 94% 29.73 in 13.0 mi South 11.5 mph 21.9 mph N/A   Overcast
6:47 AM 73.4 °F - 73.4 °F 100% 29.75 in 13.0 mi SSW 10.4 mph 16.1 mph N/A   Overcast
7:47 AM 71.6 °F - 71.6 °F 100% 29.78 in 13.0 mi SSW 9.2 mph 16.1 mph N/A   Scattered Clouds
8:47 AM 73.4 °F - 66.2 °F 78% 29.80 in 13.0 mi SW 11.5 mph 18.4 mph N/A   Scattered Clouds
9:50 AM 77.0 °F - 64.4 °F 65% 29.81 in 13.0 mi SW 9.2 mph 19.6 mph N/A   Clear
10:53 AM 78.8 °F - 59.0 °F 51% 29.83 in 13.0 mi WSW 11.5 mph 20.7 mph N/A   Clear
11:47 AM 80.6 °F 80.3 °F 53.6 °F 39% 29.82 in 13.0 mi WSW 12.7 mph 19.6 mph N/A   Clear
12:47 PM 84.2 °F - 50.0 °F 30% 29.79 in 13.0 mi West 5.8 mph 13.8 mph N/A   Clear
1:49 PM 84.2 °F - 48.2 °F 29% 29.79 in 13.0 mi NW 12.7 mph 17.3 mph N/A   Clear
2:47 PM 84.2 °F - 46.4 °F 27% 29.79 in 13.0 mi NNW 8.1 mph - N/A   Clear
6:53 PM 73.4 °F - 41.0 °F 31% 29.90 in 15.0 mi NNE 6.9 mph - N/A   Clear
7:50 PM 71.6 °F - 39.2 °F 31% 29.92 in 15.0 mi NNE 6.9 mph - N/A   Clear
8:50 PM 69.8 °F - 37.4 °F 31% 29.95 in 15.0 mi NNE 11.5 mph - N/A   Clear
9:15 PM 70.7 °F - 34.0 °F 26% 29.97 in 10.0 mi NE 11.5 mph - N/A   Clear
9:35 PM 69.8 °F - 33.3 °F 26% 29.98 in 10.0 mi NE 11.5 mph - N/A   Clear
9:55 PM 68.9 °F - 32.5 °F 26% 29.99 in 10.0 mi NE 10.4 mph 17.3 mph N/A   Clear
10:15 PM 68.4 °F - 32.0 °F 26% 30.01 in 10.0 mi NE 10.4 mph 16.1 mph N/A   Clear
10:35 PM 68.0 °F - 30.9 °F 25% 30.02 in 10.0 mi NE 10.4 mph 17.3 mph N/A   Clear
10:55 PM 67.3 °F - 28.9 °F 24% 30.02 in 10.0 mi NE 12.7 mph 17.3 mph N/A   Clear
11:15 PM 67.1 °F - 28.2 °F 23% 30.02 in 10.0 mi NE 13.8 mph 17.3 mph N/A   Clear
11:35 PM 66.6 °F - 27.5 °F 23% 30.03 in 10.0 mi NE 12.7 mph 23.0 mph N/A   Clear
11:55 PM 65.8 °F - 27.5 °F 24% 30.03 in 10.0 mi NE 11.5 mph 17.3 mph N/A   Clear